Climatologie pour Saint-Brevin les Pins
Jour • Résumé pour juillet 19, 2017 Système :  Métrique    Anglais   Mixte
« - 1 jour
+ 1 jour »
Jour Semaine Mois Année Personnalisé
  Maximum : Minimum : Moyenne :
Température sous abri : 22.2 °C 18.4 °C 19.9 °C
Point de rosée : 19.6 °C 17.2 °C 18.3 °C
Humidité : 97 % 82 % 91 %
Vitesse du vent : 20.9 km/h 0.0 km/h 7.5 km/h
Rafale : 29.0 km/h - -
Direction :- - WSW
Pression : 1010.4 hPa 1006.7 hPa -
Précipitations : 1.8 mm    
Historical Graphs
 
 
Tableau de données pour juillet 19, 2017
Heure Tempé Pt rosée Pression Vent Vitesse Rafale Humidité Taux pluie (/hr) Soleil
00:00 20.2 °C 19.2 °C 1007.3 hPa WNW 1.6 km/h 17.7 km/h 94 % 0.0 mm 0 W/m2
00:10 20.2 °C 19.2 °C 1007.0 hPa Calm   20.9 km/h 94 % 0.0 mm 0 W/m2
00:15 20.2 °C 19.2 °C 1007.0 hPa West 1.6 km/h 20.9 km/h 94 % 0.0 mm 0 W/m2
00:20 20.1 °C 19.1 °C 1007.0 hPa WNW 4.8 km/h 16.1 km/h 94 % 0.0 mm 0 W/m2
00:25 20.1 °C 19.1 °C 1006.7 hPa WNW 1.6 km/h 20.9 km/h 94 % 0.0 mm 0 W/m2
00:30 20.1 °C 19.1 °C 1006.7 hPa West 4.8 km/h 20.9 km/h 94 % 0.0 mm 0 W/m2
00:35 19.9 °C 18.8 °C 1007.0 hPa West 19.3 km/h 19.3 km/h 93 % 0.0 mm 0 W/m2
00:40 19.8 °C 18.8 °C 1007.0 hPa WSW 9.7 km/h 22.5 km/h 94 % 0.0 mm 0 W/m2
00:45 19.8 °C 18.8 °C 1007.3 hPa SW 6.4 km/h 22.5 km/h 94 % 0.0 mm 0 W/m2
00:50 19.8 °C 18.8 °C 1007.7 hPa WSW 6.4 km/h 20.9 km/h 94 % 0.0 mm 0 W/m2
00:55 19.7 °C 18.6 °C 1008.0 hPa WSW 6.4 km/h 24.1 km/h 93 % 0.0 mm 0 W/m2
01:00 19.7 °C 18.7 °C 1008.4 hPa SSW 9.7 km/h 24.1 km/h 94 % 0.0 mm 0 W/m2
01:05 19.7 °C 18.5 °C 1008.4 hPa Calm   20.9 km/h 93 % 0.0 mm 0 W/m2
01:10 19.6 °C 18.4 °C 1008.4 hPa SW 3.2 km/h 19.3 km/h 93 % 0.0 mm 0 W/m2
01:15 19.6 °C 18.4 °C 1008.4 hPa West 3.2 km/h 19.3 km/h 93 % 0.0 mm 0 W/m2
01:20 19.6 °C 18.4 °C 1008.4 hPa SW 6.4 km/h 19.3 km/h 93 % 0.0 mm 0 W/m2
01:25 19.6 °C 18.4 °C 1008.0 hPa Calm   19.3 km/h 93 % 0.0 mm 0 W/m2
01:30 19.6 °C 18.4 °C 1008.4 hPa SSW 4.8 km/h 17.7 km/h 93 % 0.0 mm 0 W/m2
01:35 19.6 °C 18.4 °C 1008.0 hPa South 8.0 km/h 17.7 km/h 93 % 0.0 mm 0 W/m2
01:40 19.4 °C 18.3 °C 1008.4 hPa SW 12.9 km/h 22.5 km/h 93 % 0.0 mm 0 W/m2
01:45 19.4 °C 18.2 °C 1008.4 hPa SW 6.4 km/h 22.5 km/h 93 % 0.0 mm 0 W/m2
01:50 19.4 °C 18.3 °C 1008.0 hPa SSW 3.2 km/h 17.7 km/h 93 % 0.0 mm 0 W/m2
01:55 19.4 °C 18.3 °C 1008.4 hPa South 14.5 km/h 22.5 km/h 93 % 0.0 mm 0 W/m2
02:00 19.4 °C 18.2 °C 1008.0 hPa SW 4.8 km/h 22.5 km/h 93 % 0.0 mm 0 W/m2
02:05 19.4 °C 18.1 °C 1008.4 hPa WSW 6.4 km/h 20.9 km/h 92 % 0.0 mm 0 W/m2
02:10 19.4 °C 18.1 °C 1008.4 hPa WSW 3.2 km/h 20.9 km/h 92 % 0.0 mm 0 W/m2
02:15 19.5 °C 18.2 °C 1008.0 hPa SSW 12.9 km/h 20.9 km/h 92 % 0.0 mm 0 W/m2
02:20 19.5 °C 18.2 °C 1008.4 hPa West 8.0 km/h 19.3 km/h 92 % 0.0 mm 0 W/m2
02:25 19.4 °C 18.1 °C 1008.4 hPa WSW 14.5 km/h 20.9 km/h 92 % 0.0 mm 0 W/m2
02:30 19.4 °C 17.9 °C 1008.4 hPa West 17.7 km/h 25.7 km/h 91 % 0.0 mm 0 W/m2
02:35 19.4 °C 17.9 °C 1008.4 hPa SW 8.0 km/h 25.7 km/h 91 % 0.0 mm 0 W/m2
02:40 19.4 °C 17.7 °C 1008.0 hPa SW 14.5 km/h 19.3 km/h 90 % 0.0 mm 0 W/m2
02:45 19.4 °C 17.8 °C 1008.4 hPa WSW 9.7 km/h 19.3 km/h 90 % 0.0 mm 0 W/m2
02:50 19.6 °C 17.7 °C 1008.4 hPa SW 9.7 km/h 25.7 km/h 89 % 0.0 mm 0 W/m2
02:55 19.5 °C 17.6 °C 1008.4 hPa SW 11.3 km/h 25.7 km/h 89 % 0.0 mm 0 W/m2
03:00 19.5 °C 17.3 °C 1008.4 hPa SW 8.0 km/h 19.3 km/h 87 % 0.0 mm 0 W/m2
03:05 19.6 °C 17.4 °C 1008.7 hPa South 4.8 km/h 19.3 km/h 87 % 0.0 mm 0 W/m2
03:10 19.7 °C 17.6 °C 1008.4 hPa WSW 8.0 km/h 19.3 km/h 88 % 0.0 mm 0 W/m2
03:15 19.7 °C 17.6 °C 1008.4 hPa WSW 3.2 km/h 17.7 km/h 88 % 0.0 mm 0 W/m2
03:20 19.7 °C 17.6 °C 1008.4 hPa WSW 1.6 km/h 17.7 km/h 88 % 0.0 mm 0 W/m2
03:25 19.7 °C 17.6 °C 1008.4 hPa SSW 6.4 km/h 20.9 km/h 88 % 0.0 mm 0 W/m2
03:30 19.7 °C 17.7 °C 1008.7 hPa SSW 8.0 km/h 20.9 km/h 88 % 0.0 mm 0 W/m2
03:35 19.7 °C 17.7 °C 1008.4 hPa SSW 4.8 km/h 16.1 km/h 88 % 0.0 mm 0 W/m2
03:40 19.7 °C 17.4 °C 1008.7 hPa SSW 1.6 km/h 16.1 km/h 87 % 0.0 mm 0 W/m2
03:45 19.7 °C 17.5 °C 1008.4 hPa West 3.2 km/h 16.1 km/h 87 % 0.0 mm 0 W/m2
03:50 19.7 °C 17.4 °C 1008.4 hPa WSW 12.9 km/h 16.1 km/h 87 % 0.0 mm 0 W/m2
03:55 19.7 °C 17.7 °C 1008.7 hPa South 4.8 km/h 14.5 km/h 88 % 0.0 mm 0 W/m2
04:00 19.7 °C 17.7 °C 1008.4 hPa SW 6.4 km/h 12.9 km/h 88 % 0.0 mm 0 W/m2
04:05 19.7 °C 17.7 °C 1008.4 hPa SW 4.8 km/h 16.1 km/h 88 % 0.0 mm 0 W/m2
04:10 19.7 °C 17.7 °C 1008.7 hPa SW 6.4 km/h 16.1 km/h 88 % 0.0 mm 0 W/m2
04:15 19.7 °C 17.4 °C 1008.4 hPa SSW 4.8 km/h 19.3 km/h 87 % 0.0 mm 0 W/m2
04:20 19.7 °C 17.4 °C 1008.4 hPa South 3.2 km/h 20.9 km/h 87 % 0.0 mm 0 W/m2
04:25 19.7 °C 17.3 °C 1008.0 hPa WSW 3.2 km/h 20.9 km/h 86 % 0.0 mm 0 W/m2
04:30 19.7 °C 17.4 °C 1008.0 hPa SSW 4.8 km/h 22.5 km/h 87 % 0.0 mm 0 W/m2
04:35 19.7 °C 17.5 °C 1008.4 hPa SSW 3.2 km/h 22.5 km/h 87 % 0.0 mm 0 W/m2
04:40 19.7 °C 17.5 °C 1008.0 hPa SW 4.8 km/h 16.1 km/h 87 % 0.0 mm 0 W/m2
04:45 19.7 °C 17.5 °C 1008.4 hPa SW 11.3 km/h 14.5 km/h 87 % 0.0 mm 0 W/m2
04:50 19.7 °C 17.5 °C 1008.0 hPa SSW 8.0 km/h 16.1 km/h 87 % 0.0 mm 0 W/m2
04:55 19.7 °C 17.4 °C 1008.0 hPa SSE 4.8 km/h 17.7 km/h 87 % 0.0 mm 0 W/m2
05:00 19.7 °C 17.4 °C 1008.0 hPa WSW 8.0 km/h 17.7 km/h 87 % 0.0 mm 0 W/m2
05:05 19.7 °C 17.5 °C 1008.0 hPa SW 6.4 km/h 12.9 km/h 87 % 0.0 mm 0 W/m2
05:10 19.7 °C 17.5 °C 1008.0 hPa WSW 6.4 km/h 16.1 km/h 87 % 0.0 mm 0 W/m2
05:15 19.7 °C 17.5 °C 1008.0 hPa SW 9.7 km/h 16.1 km/h 87 % 0.0 mm 0 W/m2
05:20 19.7 °C 17.4 °C 1008.0 hPa SW 4.8 km/h 16.1 km/h 87 % 0.0 mm 0 W/m2
05:25 19.7 °C 17.4 °C 1008.0 hPa WSW 8.0 km/h 16.1 km/h 87 % 0.0 mm 0 W/m2
05:30 19.7 °C 17.4 °C 1008.0 hPa SSW 8.0 km/h 16.1 km/h 87 % 0.0 mm 0 W/m2
05:35 19.6 °C 17.4 °C 1007.7 hPa SSW 1.6 km/h 16.1 km/h 87 % 0.0 mm 0 W/m2
05:40 19.5 °C 17.5 °C 1007.7 hPa WNW 8.0 km/h 16.1 km/h 88 % 0.0 mm 0 W/m2
05:45 19.5 °C 17.5 °C 1007.7 hPa SSW 4.8 km/h 14.5 km/h 88 % 0.0 mm 0 W/m2
05:50 19.4 °C 17.4 °C 1007.7 hPa WSW 6.4 km/h 14.5 km/h 88 % 0.0 mm 0 W/m2
05:55 19.4 °C 17.6 °C 1007.7 hPa SW 3.2 km/h 11.3 km/h 89 % 0.0 mm 0 W/m2
06:00 19.5 °C 17.6 °C 1007.7 hPa SW 11.3 km/h 16.1 km/h 89 % 0.0 mm 0 W/m2
06:05 19.5 °C 17.6 °C 1007.7 hPa SSW 3.2 km/h 16.1 km/h 89 % 0.0 mm 0 W/m2
06:10 19.6 °C 17.7 °C 1007.7 hPa WSW 3.2 km/h 12.9 km/h 89 % 0.0 mm 0 W/m2
06:15 19.6 °C 17.7 °C 1007.7 hPa SW 4.8 km/h 14.5 km/h 89 % 0.0 mm 0 W/m2
06:20 19.5 °C 17.6 °C 1007.7 hPa SSW 3.2 km/h 14.5 km/h 89 % 0.0 mm 0 W/m2
06:25 19.5 °C 17.8 °C 1007.7 hPa SW 3.2 km/h 11.3 km/h 90 % 0.0 mm 0 W/m2
06:35 19.6 °C 17.9 °C 1007.7 hPa SW 6.4 km/h 12.9 km/h 90 % 0.0 mm 5 W/m2
06:40 19.7 °C 18.0 °C 1007.7 hPa SSW 3.2 km/h 14.5 km/h 90 % 0.0 mm 0 W/m2
06:45 19.7 °C 18.0 °C 1007.7 hPa SSW 6.4 km/h 14.5 km/h 90 % 0.0 mm 5 W/m2
06:50 19.7 °C 18.0 °C 1007.7 hPa South 9.7 km/h 11.3 km/h 90 % 0.0 mm 7 W/m2
06:55 19.7 °C 18.0 °C 1007.7 hPa SW 4.8 km/h 14.5 km/h 90 % 0.0 mm 9 W/m2
07:00 19.7 °C 18.2 °C 1007.7 hPa Calm   14.5 km/h 91 % 0.0 mm 14 W/m2
07:05 19.7 °C 18.2 °C 1007.7 hPa WSW 1.6 km/h 14.5 km/h 91 % 0.0 mm 16 W/m2
07:10 19.7 °C 18.2 °C 1007.7 hPa SW 9.7 km/h 12.9 km/h 91 % 0.0 mm 26 W/m2
07:15 19.7 °C 18.2 °C 1007.3 hPa West 6.4 km/h 12.9 km/h 91 % 0.0 mm 39 W/m2
07:20 19.7 °C 18.3 °C 1007.7 hPa SW 4.8 km/h 14.5 km/h 92 % 0.0 mm 42 W/m2
07:25 19.7 °C 18.4 °C 1007.3 hPa SW 3.2 km/h 14.5 km/h 92 % 0.0 mm 33 W/m2
07:30 19.8 °C 18.4 °C 1007.7 hPa Calm   11.3 km/h 92 % 0.0 mm 47 W/m2
07:35 19.8 °C 18.4 °C 1007.7 hPa WSW 6.4 km/h 12.9 km/h 92 % 0.0 mm 44 W/m2
07:40 19.8 °C 18.4 °C 1007.7 hPa SSW 3.2 km/h 12.9 km/h 92 % 0.0 mm 42 W/m2
07:45 19.8 °C 18.5 °C 1007.7 hPa SW 4.8 km/h 12.9 km/h 92 % 0.0 mm 35 W/m2
07:50 19.8 °C 18.5 °C 1007.7 hPa WSW 8.0 km/h 12.9 km/h 92 % 0.0 mm 40 W/m2
07:55 19.8 °C 18.5 °C 1007.7 hPa Calm   12.9 km/h 92 % 0.0 mm 62 W/m2
08:00 19.8 °C 18.5 °C 1007.7 hPa SW 6.4 km/h 16.1 km/h 92 % 0.0 mm 53 W/m2
08:05 19.8 °C 18.3 °C 1007.7 hPa WSW 1.6 km/h 16.1 km/h 91 % 0.0 mm 12 W/m2
08:20 19.6 °C 18.3 °C 1007.7 hPa WSW 3.2 km/h 22.5 km/h 92 % 0.0 mm 51 W/m2
08:25 19.6 °C 18.2 °C 1007.7 hPa SW 12.9 km/h 24.1 km/h 92 % 0.0 mm 53 W/m2
08:30 19.5 °C 18.2 °C 1007.7 hPa West 8.0 km/h 24.1 km/h 92 % 0.0 mm 46 W/m2
08:35 19.5 °C 18.2 °C 1007.7 hPa WSW 4.8 km/h 19.3 km/h 92 % 0.0 mm 47 W/m2
08:40 19.5 °C 18.2 °C 1008.0 hPa Calm   19.3 km/h 92 % 0.0 mm 39 W/m2
08:45 19.5 °C 18.2 °C 1008.0 hPa West 11.3 km/h 17.7 km/h 92 % 0.0 mm 54 W/m2
08:50 19.6 °C 18.2 °C 1008.0 hPa WSW 19.3 km/h 20.9 km/h 92 % 0.0 mm 70 W/m2
08:55 19.6 °C 18.2 °C 1008.0 hPa SW 8.0 km/h 20.9 km/h 92 % 0.0 mm 63 W/m2
09:00 19.6 °C 18.2 °C 1008.4 hPa SW 14.5 km/h 17.7 km/h 92 % 0.0 mm 65 W/m2
09:05 19.6 °C 18.2 °C 1008.4 hPa WSW 8.0 km/h 22.5 km/h 92 % 0.0 mm 49 W/m2
09:10 19.4 °C 18.1 °C 1008.4 hPa West 9.7 km/h 22.5 km/h 92 % 0.0 mm 32 W/m2
09:15 19.3 °C 18.2 °C 1008.4 hPa West 3.2 km/h 14.5 km/h 93 % 0.0 mm 49 W/m2
09:20 19.2 °C 18.1 °C 1008.7 hPa SSW 9.7 km/h 17.7 km/h 93 % 0.0 mm 58 W/m2
09:25 19.2 °C 18.2 °C 1008.7 hPa WNW 8.0 km/h 17.7 km/h 94 % 0.0 mm 56 W/m2
09:30 19.2 °C 18.2 °C 1008.7 hPa WSW 9.7 km/h 16.1 km/h 94 % 0.0 mm 79 W/m2
09:35 19.2 °C 18.2 °C 1008.7 hPa SW 6.4 km/h 16.1 km/h 94 % 0.0 mm 86 W/m2
09:40 19.2 °C 18.3 °C 1008.7 hPa Calm   14.5 km/h 95 % 0.0 mm 44 W/m2
09:45 19.1 °C 18.3 °C 1008.7 hPa WSW 8.0 km/h 14.5 km/h 95 % 0.0 mm 32 W/m2
09:50 19.1 °C 18.2 °C 1009.0 hPa West 1.6 km/h 12.9 km/h 95 % 0.0 mm 44 W/m2
09:55 18.9 °C 18.1 °C 1009.0 hPa SW 1.6 km/h 11.3 km/h 95 % 0.0 mm 39 W/m2
10:00 18.9 °C 18.1 °C 1009.0 hPa SW 4.8 km/h 17.7 km/h 95 % 0.0 mm 46 W/m2
10:05 18.9 °C 18.1 °C 1009.0 hPa WSW 9.7 km/h 17.7 km/h 95 % 0.0 mm 63 W/m2
10:10 18.9 °C 18.1 °C 1009.0 hPa West 8.0 km/h 16.1 km/h 95 % 0.0 mm 109 W/m2
10:15 19.1 °C 18.4 °C 1009.0 hPa Calm   16.1 km/h 96 % 0.0 mm 134 W/m2
10:20 19.1 °C 18.5 °C 1009.0 hPa WSW 11.3 km/h 14.5 km/h 96 % 0.0 mm 107 W/m2
10:25 19.2 °C 18.5 °C 1009.0 hPa SSW 4.8 km/h 14.5 km/h 96 % 0.0 mm 56 W/m2
10:30 19.1 °C 18.4 °C 1009.4 hPa WSW 9.7 km/h 11.3 km/h 96 % 0.0 mm 33 W/m2
10:35 19.1 °C 18.4 °C 1009.4 hPa WSW 6.4 km/h 11.3 km/h 96 % 0.0 mm 26 W/m2
10:40 18.9 °C 18.1 °C 1009.4 hPa WSW 8.0 km/h 12.9 km/h 95 % 0.0 mm 56 W/m2
10:45 18.9 °C 18.3 °C 1009.4 hPa SW 12.9 km/h 16.1 km/h 96 % 0.0 mm 79 W/m2
10:50 18.9 °C 18.3 °C 1009.4 hPa WSW 11.3 km/h 19.3 km/h 96 % 0.0 mm 102 W/m2
10:55 18.9 °C 18.2 °C 1009.4 hPa SSW 3.2 km/h 19.3 km/h 96 % 0.0 mm 97 W/m2
11:00 18.9 °C 18.3 °C 1009.4 hPa WSW 4.8 km/h 16.1 km/h 96 % 0.0 mm 134 W/m2
11:05 19.0 °C 18.3 °C 1009.4 hPa West 4.8 km/h 11.3 km/h 96 % 0.0 mm 44 W/m2
11:10 18.9 °C 18.2 °C 1009.4 hPa West 4.8 km/h 19.3 km/h 96 % 0.5 mm 51 W/m2
11:15 18.8 °C 18.2 °C 1009.4 hPa WSW 6.4 km/h 19.3 km/h 96 % 0.5 mm 188 W/m2
11:20 19.1 °C 18.5 °C 1009.4 hPa West 9.7 km/h 14.5 km/h 96 % 0.5 mm 156 W/m2
11:25 19.1 °C 18.6 °C 1009.4 hPa WSW 6.4 km/h 14.5 km/h 97 % 0.5 mm 97 W/m2
11:30 18.9 °C 18.3 °C 1009.4 hPa WSW 3.2 km/h 17.7 km/h 96 % 0.5 mm 63 W/m2
11:35 18.9 °C 18.3 °C 1009.4 hPa WNW 1.6 km/h 17.7 km/h 96 % 0.5 mm 153 W/m2
11:40 19.1 °C 18.6 °C 1009.4 hPa Calm   11.3 km/h 97 % 0.5 mm 174 W/m2
11:45 19.1 °C 18.6 °C 1009.4 hPa WSW 9.7 km/h 12.9 km/h 97 % 0.5 mm 151 W/m2
11:50 19.1 °C 18.6 °C 1009.4 hPa WSW 11.3 km/h 12.9 km/h 97 % 0.5 mm 160 W/m2
11:55 19.1 °C 18.6 °C 1009.4 hPa WSW 6.4 km/h 14.5 km/h 97 % 0.5 mm 163 W/m2
12:00 19.2 °C 18.5 °C 1009.7 hPa WSW 6.4 km/h 14.5 km/h 96 % 0.5 mm 114 W/m2
12:10 19.0 °C 18.3 °C 1009.7 hPa WSW 8.0 km/h 17.7 km/h 96 % 0.0 mm 151 W/m2
12:15 19.2 °C 18.5 °C 1009.7 hPa SSW 6.4 km/h 17.7 km/h 96 % 0.0 mm 105 W/m2
12:20 19.0 °C 18.3 °C 1009.7 hPa WSW 3.2 km/h 22.5 km/h 96 % 0.0 mm 172 W/m2
12:25 19.1 °C 18.4 °C 1009.7 hPa West 8.0 km/h 22.5 km/h 96 % 0.0 mm 243 W/m2
12:30 19.2 °C 18.7 °C 1009.7 hPa WSW 4.8 km/h 20.9 km/h 97 % 0.3 mm 220 W/m2
12:35 19.3 °C 18.6 °C 1009.7 hPa WSW 6.4 km/h 20.9 km/h 96 % 0.3 mm 204 W/m2
12:40 19.3 °C 18.6 °C 1009.7 hPa West 9.7 km/h 16.1 km/h 96 % 0.3 mm 327 W/m2
12:45 19.3 °C 18.7 °C 1009.7 hPa WSW 6.4 km/h 16.1 km/h 96 % 0.3 mm 452 W/m2
12:50 19.7 °C 19.2 °C 1009.7 hPa WSW 1.6 km/h 14.5 km/h 97 % 0.3 mm 432 W/m2
12:55 19.9 °C 19.5 °C 1010.0 hPa SW 4.8 km/h 12.9 km/h 97 % 0.3 mm 262 W/m2
13:00 20.0 °C 19.3 °C 1009.7 hPa WSW 6.4 km/h 14.5 km/h 96 % 0.3 mm 578 W/m2
13:05 20.1 °C 19.4 °C 1009.7 hPa SW 6.4 km/h 14.5 km/h 96 % 0.3 mm 584 W/m2
13:10 20.2 °C 19.2 °C 1009.7 hPa WSW 6.4 km/h 16.1 km/h 94 % 0.3 mm 446 W/m2
13:15 20.2 °C 19.4 °C 1009.7 hPa SW 12.9 km/h 16.1 km/h 95 % 0.3 mm 594 W/m2
13:20 20.4 °C 19.4 °C 1009.7 hPa SSW 4.8 km/h 14.5 km/h 94 % 0.3 mm 650 W/m2
13:25 20.6 °C 19.4 °C 1009.7 hPa SW 9.7 km/h 16.1 km/h 93 % 0.3 mm 513 W/m2
13:30 20.4 °C 19.0 °C 1010.0 hPa SW 8.0 km/h 17.7 km/h 92 % 0.0 mm 397 W/m2
13:35 20.3 °C 19.2 °C 1010.0 hPa SW 6.4 km/h 19.3 km/h 93 % 0.0 mm 424 W/m2
13:40 20.6 °C 19.2 °C 1010.0 hPa SSW 12.9 km/h 19.3 km/h 92 % 0.0 mm 434 W/m2
13:45 20.7 °C 19.0 °C 1010.0 hPa WSW 4.8 km/h 14.5 km/h 90 % 0.0 mm 519 W/m2
13:50 21.3 °C 19.6 °C 1010.0 hPa SW 19.3 km/h 19.3 km/h 90 % 0.0 mm 1028 W/m2
13:55 21.1 °C 19.2 °C 1010.0 hPa SSW 6.4 km/h 19.3 km/h 89 % 0.0 mm 508 W/m2
14:00 21.1 °C 19.2 °C 1010.0 hPa SW 9.7 km/h 19.3 km/h 89 % 0.0 mm 425 W/m2
14:05 21.1 °C 19.0 °C 1010.0 hPa SSW 1.6 km/h 17.7 km/h 88 % 0.0 mm 276 W/m2
14:10 21.0 °C 18.9 °C 1010.0 hPa WSW 4.8 km/h 16.1 km/h 88 % 0.0 mm 341 W/m2
14:15 20.9 °C 18.9 °C 1010.0 hPa West 8.0 km/h 19.3 km/h 88 % 0.0 mm 446 W/m2
14:20 20.8 °C 18.8 °C 1010.0 hPa WSW 6.4 km/h 19.3 km/h 88 % 0.0 mm 225 W/m2
14:25 20.6 °C 18.5 °C 1010.0 hPa West 8.0 km/h 17.7 km/h 88 % 0.0 mm 113 W/m2
14:30 20.4 °C 18.5 °C 1010.0 hPa SSW 9.7 km/h 19.3 km/h 89 % 0.0 mm 97 W/m2
14:35 20.2 °C 18.3 °C 1010.0 hPa SSW 4.8 km/h 22.5 km/h 89 % 0.0 mm 95 W/m2
14:40 20.0 °C 18.3 °C 1010.0 hPa SSE 4.8 km/h 22.5 km/h 90 % 0.0 mm 121 W/m2
14:45 20.1 °C 18.4 °C 1010.0 hPa WSW 14.5 km/h 17.7 km/h 90 % 0.0 mm 163 W/m2
14:50 20.0 °C 18.3 °C 1010.0 hPa WSW 6.4 km/h 17.7 km/h 90 % 0.0 mm 171 W/m2
14:55 20.1 °C 18.4 °C 1010.0 hPa West 3.2 km/h 17.7 km/h 90 % 0.0 mm 207 W/m2
15:00 20.1 °C 18.5 °C 1010.0 hPa WSW 11.3 km/h 20.9 km/h 91 % 0.0 mm 244 W/m2
15:05 19.9 °C 18.6 °C 1010.0 hPa WSW 6.4 km/h 20.9 km/h 92 % 0.0 mm 225 W/m2
15:10 20.1 °C 18.6 °C 1010.0 hPa WSW 9.7 km/h 19.3 km/h 91 % 0.0 mm 260 W/m2
15:15 20.1 °C 18.6 °C 1010.0 hPa WSW 16.1 km/h 25.7 km/h 91 % 0.0 mm 165 W/m2
15:20 20.1 °C 18.4 °C 1010.0 hPa WSW 3.2 km/h 25.7 km/h 90 % 0.0 mm 185 W/m2
15:25 20.2 °C 18.7 °C 1010.0 hPa West 11.3 km/h 22.5 km/h 91 % 0.0 mm 225 W/m2
15:30 20.3 °C 18.6 °C 1010.0 hPa WNW 12.9 km/h 22.5 km/h 90 % 0.0 mm 272 W/m2
15:35 20.3 °C 18.5 °C 1010.4 hPa WSW 11.3 km/h 19.3 km/h 89 % 0.0 mm 232 W/m2
15:40 20.3 °C 18.5 °C 1010.4 hPa Calm   19.3 km/h 89 % 0.0 mm 385 W/m2
15:45 20.8 °C 19.0 °C 1010.4 hPa SW 3.2 km/h 17.7 km/h 89 % 0.0 mm 404 W/m2
15:50 21.1 °C 19.0 °C 1010.4 hPa WSW 9.7 km/h 20.9 km/h 88 % 0.0 mm 269 W/m2
15:55 20.8 °C 18.5 °C 1010.4 hPa SSW 6.4 km/h 22.5 km/h 87 % 0.0 mm 269 W/m2
16:00 21.0 °C 18.9 °C 1010.4 hPa SW 9.7 km/h 22.5 km/h 88 % 0.0 mm 374 W/m2
16:05 21.5 °C 19.1 °C 1010.4 hPa WSW 12.9 km/h 22.5 km/h 86 % 0.0 mm 550 W/m2
16:10 21.7 °C 19.3 °C 1010.4 hPa SSW 9.7 km/h 17.7 km/h 86 % 0.0 mm 506 W/m2
16:15 21.8 °C 19.0 °C 1010.4 hPa WSW 4.8 km/h 17.7 km/h 84 % 0.0 mm 283 W/m2
16:20 21.3 °C 18.7 °C 1010.4 hPa WSW 9.7 km/h 17.7 km/h 85 % 0.0 mm 292 W/m2
16:25 21.0 °C 18.6 °C 1010.4 hPa SW 12.9 km/h 17.7 km/h 86 % 0.0 mm 200 W/m2
16:30 21.0 °C 18.6 °C 1010.4 hPa SSW 9.7 km/h 17.7 km/h 86 % 0.0 mm 149 W/m2
16:35 20.8 °C 18.4 °C 1010.4 hPa SSW 8.0 km/h 14.5 km/h 86 % 0.0 mm 223 W/m2
16:40 20.8 °C 18.6 °C 1010.4 hPa SSW 6.4 km/h 14.5 km/h 87 % 0.0 mm 183 W/m2
16:45 20.9 °C 18.5 °C 1010.4 hPa WSW 8.0 km/h 16.1 km/h 86 % 0.0 mm 142 W/m2
16:50 20.8 °C 18.3 °C 1010.4 hPa West 8.0 km/h 20.9 km/h 86 % 0.0 mm 192 W/m2
16:55 20.8 °C 18.4 °C 1010.4 hPa South 6.4 km/h 20.9 km/h 86 % 0.0 mm 285 W/m2
17:00 21.1 °C 18.4 °C 1010.4 hPa Calm   17.7 km/h 85 % 0.0 mm 269 W/m2
17:05 21.1 °C 18.5 °C 1010.4 hPa SSW 9.7 km/h 24.1 km/h 85 % 0.0 mm 248 W/m2
17:10 21.2 °C 18.6 °C 1010.4 hPa SW 4.8 km/h 24.1 km/h 85 % 0.0 mm 306 W/m2
17:15 21.3 °C 18.5 °C 1010.4 hPa Calm   20.9 km/h 84 % 0.0 mm 271 W/m2
17:20 21.2 °C 18.4 °C 1010.4 hPa WSW 9.7 km/h 27.4 km/h 84 % 0.0 mm 202 W/m2
17:25 21.1 °C 18.4 °C 1010.4 hPa SW 6.4 km/h 27.4 km/h 85 % 0.0 mm 148 W/m2
17:30 21.1 °C 18.4 °C 1010.4 hPa West 9.7 km/h 25.7 km/h 85 % 0.0 mm 250 W/m2
17:35 21.2 °C 18.7 °C 1010.4 hPa West 12.9 km/h 17.7 km/h 86 % 0.0 mm 202 W/m2
17:40 21.0 °C 18.6 °C 1010.4 hPa South 1.6 km/h 24.1 km/h 86 % 0.0 mm 237 W/m2
17:45 21.0 °C 18.6 °C 1010.4 hPa WSW 9.7 km/h 24.1 km/h 86 % 0.0 mm 341 W/m2
17:50 21.3 °C 18.8 °C 1010.4 hPa SSW 17.7 km/h 22.5 km/h 86 % 0.0 mm 236 W/m2
17:55 21.2 °C 18.7 °C 1010.4 hPa WSW 8.0 km/h 25.7 km/h 86 % 0.0 mm 327 W/m2
18:00 21.3 °C 18.8 °C 1010.4 hPa SW 9.7 km/h 25.7 km/h 86 % 0.0 mm 290 W/m2
18:05 21.6 °C 19.1 °C 1010.4 hPa SW 9.7 km/h 19.3 km/h 86 % 0.0 mm 359 W/m2
18:10 22.0 °C 19.2 °C 1010.4 hPa WSW 9.7 km/h 25.7 km/h 84 % 0.0 mm 345 W/m2
18:15 21.8 °C 18.8 °C 1010.4 hPa WSW 4.8 km/h 25.7 km/h 83 % 0.0 mm 429 W/m2
18:20 22.2 °C 19.2 °C 1010.4 hPa WSW 11.3 km/h 22.5 km/h 83 % 0.0 mm 680 W/m2
18:25 22.2 °C 18.9 °C 1010.4 hPa WSW 12.9 km/h 27.4 km/h 82 % 0.0 mm 599 W/m2
18:30 21.8 °C 18.8 °C 1010.4 hPa WSW 14.5 km/h 27.4 km/h 83 % 0.0 mm 244 W/m2
18:35 21.5 °C 18.9 °C 1010.4 hPa SSW 4.8 km/h 24.1 km/h 85 % 0.0 mm 271 W/m2
18:40 21.6 °C 19.0 °C 1010.0 hPa SW 14.5 km/h 24.1 km/h 85 % 0.0 mm 262 W/m2
18:45 21.7 °C 18.7 °C 1010.4 hPa SW 9.7 km/h 20.9 km/h 83 % 0.0 mm 128 W/m2
18:50 21.4 °C 18.6 °C 1010.4 hPa SSW 8.0 km/h 20.9 km/h 84 % 0.0 mm 181 W/m2
18:55 21.7 °C 18.9 °C 1010.4 hPa WSW 12.9 km/h 22.5 km/h 84 % 0.0 mm 443 W/m2
19:00 21.5 °C 18.7 °C 1010.0 hPa SSW 6.4 km/h 22.5 km/h 84 % 0.0 mm 97 W/m2
19:05 21.5 °C 18.7 °C 1010.0 hPa SSW 19.3 km/h 24.1 km/h 84 % 0.0 mm 186 W/m2
19:10 21.3 °C 18.3 °C 1010.0 hPa WNW 4.8 km/h 25.7 km/h 83 % 0.0 mm 109 W/m2
19:15 21.2 °C 18.4 °C 1010.0 hPa WSW 3.2 km/h 25.7 km/h 84 % 0.0 mm 148 W/m2
19:16 21.2 °C 18.6 °C 1010.0 hPa WSW 17.7 km/h 17.7 km/h 85 % 0.0 mm 153 W/m2
19:17 21.1 °C 18.5 °C 1010.0 hPa WSW 14.5 km/h 17.7 km/h 85 % 0.0 mm 172 W/m2
19:18 21.1 °C 18.5 °C 1010.0 hPa South 20.9 km/h 20.9 km/h 85 % 0.0 mm 190 W/m2
19:19 21.1 °C 18.4 °C 1010.0 hPa SW 17.7 km/h 20.9 km/h 85 % 0.0 mm 137 W/m2
19:29 21.1 °C 18.4 °C 1010.0 hPa West 12.9 km/h 20.9 km/h 85 % 0.0 mm 107 W/m2
19:35 21.0 °C 18.4 °C 1010.0 hPa South 8.0 km/h 24.1 km/h 85 % 0.0 mm 190 W/m2
19:40 21.2 °C 18.5 °C 1010.0 hPa SSW 8.0 km/h 25.7 km/h 85 % 0.0 mm 114 W/m2
19:45 21.1 °C 18.4 °C 1010.0 hPa SW 6.4 km/h 25.7 km/h 85 % 0.0 mm 90 W/m2
19:50 20.8 °C 18.4 °C 1010.0 hPa WSW 12.9 km/h 22.5 km/h 86 % 0.0 mm 83 W/m2
19:55 20.7 °C 18.5 °C 1010.0 hPa SSW 11.3 km/h 25.7 km/h 87 % 0.0 mm 95 W/m2
20:00 20.7 °C 18.5 °C 1010.0 hPa SSW 8.0 km/h 25.7 km/h 87 % 0.0 mm 95 W/m2
20:05 20.7 °C 18.5 °C 1010.0 hPa WSW 4.8 km/h 25.7 km/h 87 % 0.0 mm 88 W/m2
20:15 20.6 °C 18.4 °C 1010.0 hPa SSW 4.8 km/h 20.9 km/h 87 % 0.0 mm 83 W/m2
20:20 20.6 °C 18.5 °C 1010.0 hPa WSW 8.0 km/h 17.7 km/h 88 % 0.0 mm 60 W/m2
20:25 20.5 °C 18.4 °C 1010.0 hPa SSW 6.4 km/h 19.3 km/h 88 % 0.0 mm 44 W/m2
20:30 20.4 °C 18.3 °C 1010.0 hPa SSW 4.8 km/h 19.3 km/h 88 % 0.0 mm 25 W/m2
20:35 20.3 °C 18.3 °C 1010.0 hPa WSW 12.9 km/h 19.3 km/h 88 % 0.0 mm 16 W/m2
20:40 20.0 °C 18.3 °C 1010.0 hPa WSW 3.2 km/h 20.9 km/h 90 % 0.5 mm 30 W/m2
20:45 19.8 °C 18.3 °C 1010.0 hPa WSW 4.8 km/h 24.1 km/h 91 % 0.5 mm 28 W/m2
20:50 19.6 °C 18.3 °C 1010.0 hPa WSW 11.3 km/h 24.1 km/h 92 % 0.5 mm 37 W/m2
21:00 19.3 °C 17.9 °C 1010.0 hPa West 12.9 km/h 27.4 km/h 92 % 0.5 mm 26 W/m2
21:05 19.3 °C 18.1 °C 1010.0 hPa West 4.8 km/h 27.4 km/h 93 % 0.5 mm 21 W/m2
21:10 19.3 °C 18.1 °C 1010.0 hPa WSW 11.3 km/h 17.7 km/h 93 % 0.5 mm 12 W/m2
21:15 19.3 °C 18.2 °C 1010.0 hPa WSW 6.4 km/h 19.3 km/h 93 % 0.5 mm 16 W/m2
21:20 19.3 °C 18.2 °C 1010.0 hPa West 6.4 km/h 19.3 km/h 93 % 0.5 mm 14 W/m2
21:25 19.4 °C 18.2 °C 1010.0 hPa West 9.7 km/h 22.5 km/h 93 % 0.5 mm 16 W/m2
21:30 19.4 °C 18.2 °C 1010.0 hPa WSW 9.7 km/h 22.5 km/h 93 % 0.5 mm 11 W/m2
21:35 19.4 °C 18.2 °C 1010.0 hPa WSW 6.4 km/h 17.7 km/h 93 % 0.5 mm 9 W/m2
21:45 19.3 °C 17.9 °C 1010.0 hPa West 19.3 km/h 20.9 km/h 92 % 0.0 mm 5 W/m2
21:50 19.2 °C 17.9 °C 1010.0 hPa SW 8.0 km/h 20.9 km/h 92 % 0.0 mm 0 W/m2
21:55 19.2 °C 17.9 °C 1010.0 hPa SW 6.4 km/h 19.3 km/h 92 % 0.0 mm 0 W/m2
22:00 19.3 °C 17.9 °C 1010.0 hPa SW 3.2 km/h 16.1 km/h 92 % 0.0 mm 0 W/m2
22:05 19.3 °C 17.9 °C 1010.0 hPa SW 4.8 km/h 19.3 km/h 92 % 0.0 mm 0 W/m2
22:10 19.3 °C 17.9 °C 1010.0 hPa WSW 9.7 km/h 19.3 km/h 92 % 0.0 mm 0 W/m2
22:15 19.3 °C 17.9 °C 1010.0 hPa West 11.3 km/h 22.5 km/h 92 % 0.0 mm 0 W/m2
22:20 19.3 °C 17.9 °C 1010.0 hPa WSW 8.0 km/h 22.5 km/h 92 % 0.0 mm 0 W/m2
22:30 19.3 °C 17.8 °C 1010.4 hPa WSW 8.0 km/h 20.9 km/h 91 % 0.0 mm 0 W/m2
22:35 19.3 °C 17.8 °C 1010.4 hPa WSW 3.2 km/h 20.9 km/h 91 % 0.0 mm 0 W/m2
22:40 19.3 °C 18.0 °C 1010.4 hPa WSW 12.9 km/h 19.3 km/h 92 % 0.0 mm 0 W/m2
22:45 19.3 °C 18.0 °C 1010.4 hPa West 16.1 km/h 25.7 km/h 92 % 0.5 mm 0 W/m2
22:50 19.2 °C 17.8 °C 1010.0 hPa West 4.8 km/h 25.7 km/h 92 % 0.5 mm 0 W/m2
22:55 19.0 °C 17.7 °C 1010.0 hPa West 9.7 km/h 20.9 km/h 92 % 0.5 mm 0 W/m2
23:00 18.8 °C 17.7 °C 1010.0 hPa WNW 4.8 km/h 25.7 km/h 93 % 0.5 mm 0 W/m2
23:05 18.8 °C 17.6 °C 1010.4 hPa West 17.7 km/h 27.4 km/h 93 % 0.5 mm 0 W/m2
23:10 18.8 °C 17.8 °C 1010.4 hPa WSW 8.0 km/h 27.4 km/h 94 % 0.5 mm 0 W/m2
23:15 18.7 °C 17.6 °C 1010.4 hPa West 8.0 km/h 29.0 km/h 93 % 0.5 mm 0 W/m2
23:20 18.7 °C 17.5 °C 1010.0 hPa WNW 8.0 km/h 29.0 km/h 93 % 0.5 mm 0 W/m2
23:25 18.6 °C 17.4 °C 1010.0 hPa WSW 1.6 km/h 20.9 km/h 93 % 0.5 mm 0 W/m2
23:30 18.6 °C 17.6 °C 1010.4 hPa WNW 9.7 km/h 24.1 km/h 94 % 0.5 mm 0 W/m2
23:35 18.6 °C 17.6 °C 1010.4 hPa WNW 8.0 km/h 24.1 km/h 94 % 0.5 mm 0 W/m2
23:40 18.5 °C 17.3 °C 1010.4 hPa NW 20.9 km/h 25.7 km/h 93 % 0.5 mm 0 W/m2
23:45 18.4 °C 17.2 °C 1010.4 hPa West 9.7 km/h 25.7 km/h 93 % 0.3 mm 0 W/m2
23:50 18.4 °C 17.3 °C 1010.4 hPa WNW 9.7 km/h 24.1 km/h 93 % 0.0 mm 0 W/m2
Avec l'autorisation de Weather Underground - 1.75 mb